Corpus Christi NAS, TX

9:43 AM CST on November 20, 2017 (GMT -0600)
Corpus Christi Naval Air Station-Truax

Weather History for KNGP - October, 2013

Change the Weather History Date:

Monday, October 14, 2013

  Actual Average Record
Temperature  
Mean Temperature 80 °F -  
Max Temperature 84 °F 80 °F 91 °F (2017)
Min Temperature 77 °F 66 °F 54 °F (2004)
Cooling Degree Days 16    
Growing Degree Days 30 (Base 50)    
Moisture  
Dew Point 74 °F    
Average Humidity 81    
Maximum Humidity 90    
Minimum Humidity 69    
Precipitation  
Precipitation 0.05 in - - ()
Sea Level Pressure  
Sea Level Pressure 29.99 in    
Wind  
Wind Speed 12 mph (SE)    
Max Wind Speed 20 mph    
Max Gust Speed 24 mph    
Visibility 10 miles    
Events Rain    
Averages and records for this station are not official NWS values.
T = Trace of Precipitation, MM = Missing Value Source: NWS Daily Summary

Daily Weather History Graph

Daily Weather History Graph

Search for Another Location

Airport or City:

Trip Planner

Search our weather history database for the weather conditions in past years. The results will help you decide how hot, cold, wet, or windy it might be!

Date:

Astronomy

Oct. 14, 2013 Rise Set
Actual Time 7:28 AM CDT 7:00 PM CDT
Civil Twilight 7:05 AM CDT 7:24 PM CDT
Nautical Twilight 6:38 AM CDT 7:51 PM CDT
Astronomical Twilight 6:10 AM CDT 8:18 PM CDT
Moon 4:11 PM CDT (10/14) 3:09 AM CDT (10/14)
Length of Visible Light 12h 19m
Length of Day
11h 31m
Waxing Gibbous, 79% of the Moon is Illuminated
Oct 14
Waxing Gibbous
Oct 18
Full
Oct 26
Last Quarter
Nov 3
New
Nov 9
First Quarter

Hourly Weather History & Observations

Time (CDT) Temp. Heat Index Dew Point Humidity Pressure Visibility Wind Dir Wind Speed Gust Speed Precip Events Conditions
12:56 AM 80.1 °F 85.8 °F 77.0 °F 90% 30.04 in 10.0 mi ESE 9.2 mph - N/A   Partly Cloudy
1:17 AM 79.0 °F - 75.9 °F 90% 30.04 in 10.0 mi SE 9.2 mph - N/A   Mostly Cloudy
1:26 AM 79.0 °F - 75.0 °F 88% 30.04 in 10.0 mi SE 6.9 mph - N/A   Scattered Clouds
1:56 AM 79.0 °F - 75.0 °F 88% 30.04 in 10.0 mi SE 8.1 mph - N/A   Partly Cloudy
2:53 AM 78.8 °F - 75.2 °F 89% 30.02 in 9.0 mi SE 18.4 mph - 0.02 in Rain Light Rain
2:56 AM 77.0 °F - 73.9 °F 90% 30.02 in 8.0 mi SE 13.8 mph 19.6 mph 0.02 in Rain Rain
3:56 AM 79.0 °F - 75.0 °F 88% 30.00 in 10.0 mi SE 9.2 mph - 0.01 in   Clear
4:56 AM 79.0 °F - 75.0 °F 88% 29.99 in 10.0 mi SSE 11.5 mph - N/A   Partly Cloudy
5:56 AM 79.0 °F - 73.9 °F 84% 29.99 in 10.0 mi SSE 10.4 mph - N/A   Clear
6:56 AM 79.0 °F - 73.9 °F 84% 30.01 in 10.0 mi SSE 8.1 mph - N/A   Clear
7:56 AM 79.0 °F - 73.9 °F 84% 30.03 in 10.0 mi SSE 8.1 mph - N/A   Clear
8:56 AM 81.0 °F 86.7 °F 75.0 °F 82% 30.03 in 10.0 mi SE 10.4 mph - N/A   Scattered Clouds
9:15 AM 80.1 °F 85.1 °F 75.0 °F 85% 30.04 in 8.0 mi SE 12.7 mph - 0.00 in Rain Light Rain
9:27 AM 79.0 °F - 75.0 °F 88% 30.03 in 6.0 mi SE 12.7 mph - 0.02 in Rain Light Rain
9:56 AM 80.1 °F 84.2 °F 73.0 °F 79% 30.04 in 10.0 mi SE 15.0 mph - 0.02 in   Overcast
10:56 AM 82.0 °F 86.3 °F 71.1 °F 69% 30.03 in 10.0 mi SSE 18.4 mph - 0.00 in   Partly Cloudy
11:56 AM 81.0 °F 86.7 °F 75.0 °F 82% 30.03 in 10.0 mi South 12.7 mph - N/A   Overcast
12:56 PM 82.9 °F 88.8 °F 73.0 °F 72% 30.00 in 10.0 mi SSE 12.7 mph - N/A   Overcast
1:56 PM 82.9 °F 89.4 °F 73.9 °F 74% 29.96 in 10.0 mi SSE 17.3 mph - N/A   Mostly Cloudy
2:56 PM 82.0 °F 87.9 °F 73.9 °F 76% 29.95 in 10.0 mi SSE 15.0 mph - N/A   Overcast
3:56 PM 84.0 °F 90.2 °F 73.0 °F 69% 29.94 in 10.0 mi SE 18.4 mph 23.0 mph N/A   Mostly Cloudy
4:56 PM 82.9 °F 88.8 °F 73.0 °F 72% 29.92 in 10.0 mi SE 17.3 mph - N/A   Clear
5:51 PM 82.4 °F 88.2 °F 73.4 °F 74% 29.93 in 10.0 mi SSE 15.0 mph 24.2 mph N/A   Mostly Cloudy
5:56 PM 82.0 °F 87.4 °F 73.0 °F 74% 29.93 in 10.0 mi SE 16.1 mph 24.2 mph N/A   Scattered Clouds
6:56 PM 80.1 °F 83.6 °F 71.1 °F 74% 29.93 in 10.0 mi SE 13.8 mph - N/A   Clear
7:56 PM 80.1 °F 83.8 °F 72.0 °F 76% 29.92 in 10.0 mi SE 19.6 mph 23.0 mph N/A   Clear
8:56 PM 80.1 °F 83.8 °F 72.0 °F 76% 29.95 in 10.0 mi SE 11.5 mph - N/A   Clear
9:56 PM 79.0 °F - 72.0 °F 79% 29.97 in 10.0 mi SE 11.5 mph - N/A   Clear
10:56 PM 79.0 °F - 72.0 °F 79% 29.96 in 10.0 mi SE 13.8 mph - N/A   Clear
11:56 PM 79.0 °F - 71.1 °F 77% 29.95 in 10.0 mi SSE 16.1 mph - N/A   Clear